Regional Weather Roundup
Issued by NWS

Home | Current Version | Previous Version | Text Only | Print | Product List | Glossary On
Versions: 1 2 3 4 5 6 7 8 9 10 11 12 13 14 15 16 17 18 19 20 21 22 23 24 25 26 27 28 29 30 31 32 33 34 35 36 37 38 39 40 41 42 43 44 45 46 47 48 49 50
000
ASUS44 KFWD 301103
RWRTX
NORTH TEXAS HOURLY WEATHER ROUNDUP
NATIONAL WEATHER SERVICE FORT WORTH TX
500 AM CST FRI JAN 30 2015

NOTE: "FAIR" INDICATES FEW OR NO CLOUDS BELOW 12,000 FEET WITH NO
SIGNIFICANT WEATHER AND/OR OBSTRUCTIONS TO VISIBILITY.

TXZ118-119-301200-
DALLAS/FORT WORTH METROPLEX

CITY           SKY/WX    TMP DP  RH WIND       PRES   REMARKS
DFW AIRPORT    PTCLDY    42  31  64 N8        30.46S WCI  37
DALLAS LOVE    MOCLDY    45  30  55 N6        30.46S
FTW MEACHAM    PTCLDY    44  32  62 N9        30.45F WCI  39
DAL-EXECUTIVE  PTCLDY    46  30  53 NE9       30.45S
FTW-ALLIANCE   PTCLDY    40  31  70 N7        30.46F WCI  35
ARLINGTON      MOCLDY    47  29  49 N10       30.45S
GRAND PRAIRIE  PTCLDY    46  32  60 N8        30.47S
LANCASTER      PTCLDY    43  30  60 N6        30.46S WCI  39
$$

TXZ091>094-102>105-117-120-121-131>134-301200-
NORTH CENTRAL TEXAS

CITY           SKY/WX    TMP DP  RH WIND       PRES   REMARKS
SHRMAN/DENISON PTCLDY    38  33  83 N6        30.47S WCI  34
BRIDGEPORT     PTCLDY    42  32  68 NE5       30.49S WCI  39
DECATUR        PTCLDY    40  30  66 NE5       30.47R WCI  37
DENTON         PTCLDY    41  31  67 N5        30.47S WCI  38
MCKINNEY       PTCLDY    39  30  70 N6        30.46R WCI  35
GREENVILLE     MOCLDY    37  32  81 N3        30.46R
ROCKWALL       MOCLDY    40  32  71 N3        30.45S
TERRELL        MOCLDY    44  32  62 N6        30.46S
WAXAHACHIE     MOCLDY    44  32  62 N8        30.45S WCI  40
CLEBURNE       PTCLDY    43  30  61 NE8       30.45S WCI  38
GRANBURY       PTCLDY    45  33  63 N5        30.47S
$$

TXZ083>090-098>101-113>116-127>130-139>142-154-155-301200-
WESTERN NORTH TEXAS

CITY           SKY/WX    TMP DP  RH WIND       PRES   REMARKS
WICHITA FALLS  CLOUDY    40  32  73 N8        30.49R WCI  34
WF-KICKAPOO    CLOUDY    37  26  65 N7        30.50S WCI  31
VERNON         CLOUDY    42  28  58 NE7       30.50F WCI  37
ABILENE        CLOUDY    43  29  57 NE6       30.45S WCI  39
ABILENE-DYESS  CLOUDY    43  31  63 NE6       30.44F WCI  39
MINERAL WELLS  FAIR      42  30  62 N6        30.45S WCI  38
STEPHENVILLE   PTCLDY    42  31  64 N7        30.45F WCI  38
COMANCHE       MOCLDY    43  33  68 NE5       30.44S
BROWNWOOD      CLOUDY    45  32  61 NE7       30.44S
COLEMAN        CLOUDY    45  33  64 NE8       30.44S
BRADY          CLOUDY    46  36  66 N10       30.40F
$$

TXZ143>147-156>162-174-175-301200-
CENTRAL TEXAS

CITY           SKY/WX    TMP DP  RH WIND       PRES   REMARKS
WACO           MOCLDY    46  32  58 N12       30.43S
WACO-MCGREGOR  MOCLDY    46  28  49 NE15      30.44R
CORSICANA      PTCLDY    46  32  58 NE8       30.43S
MEXIA          PTCLDY    44  34  68 N6        30.40S
HEARNE         PTCLDY    45  34  64 N6        30.42R
TEMPLE         CLOUDY    46  30  53 N8        30.41R
KILLEEN        CLOUDY    47  32  57 N13       30.41S
KILLEEN-SKYLRK CLOUDY    48  28  46 N12G18    30.39F
FORT HOOD      CLOUDY    47  32  55 N13       30.41S
HAMILTON       CLOUDY    46  32  60 NE7       30.43S
LAMPASAS       CLOUDY    48  34  60 N7        30.41R
$$

TXZ095>097-106>112-122>126-135>138-148>153-164>167-301200-
EAST TEXAS

CITY           SKY/WX    TMP DP  RH WIND       PRES   REMARKS
PARIS          PTCLDY    36  28  75 N8        30.46F WCI  29
GILMER         MOCLDY    40  32  71 NE3       30.45R
MINEOLA        CLOUDY    39  34  81 CALM      30.46S
TYLER          MOCLDY    44  32  62 NE8       30.43S WCI  39
LONGVIEW       PTCLDY    44  30  57 NE7       30.44S
MARSHALL       PTCLDY    45  34  65 CALM      30.47R
PALESTINE      MOCLDY    46  33  60 NE14      30.42S
JACKSONVILLE   MOCLDY    44  32  62 MISG      30.41S
HENDERSON      MOCLDY    43  32  65 NE6       30.44R WCI  39
NACOGDOCHES    PTCLDY    45  32  61 NE7       30.40F
LUFKIN         CLEAR     48  34  58 N10       30.39S
$$

SUPPLEMENTAL OBSERVATIONS (CENTRAL)

CITY           SKY/WX    TMP DP  RH WIND       PRES   REMARKS
$$

SUPPLEMENTAL OBSERVATIONS (WEST)

CITY           SKY/WX    TMP DP  RH WIND       PRES   REMARKS
$$

SUPPLEMENTAL OBSERVATIONS (EAST)

CITY           SKY/WX    TMP DP  RH WIND       PRES   REMARKS
$$

SUPPLEMENTAL OBSERVATIONS ARE A COLLECTION OF AUTOMATED INSTRUMENTS
THAT ARE MAINTAINED BY A VARIETY OF FEDERAL AND STATE AGENCIES.
CERTAIN ELEMENTS...SUCH AS HUMIDITY VALUES AND SUSTAINED WIND
SPEEDS...MAY BE APPROXIMATED.




USA.gov is the U.S. government's official web portal to all federal, state and local government web resources and services.